SCP
0 0 0 0 0 0 0 0 0 0 0 0 0 0 0 0 0 0 0 0 0 0
0 0 0 0 0 0 0 0 0 0 0 0 0 0 0 0 0 0 0 0 0 0
0 0 0 0 0 0 0 0 0 0 0 0 0 0 0 0 0 0 0 0 0 0
0 0 0 0 0 0 0 0 0 0 0 0 0 0 0 0 0 0 0 0 0 0
0 0 0 0 0 0 0 0 0 0 0 0 0 0 0 0 0 0 0 0 0 0
0 0 0 0 0 0 0 0 0 0 0 0 0 0 0 0 0 0 0 0 0 0
0 0 0 0 0 0 0 0 0 0 0 0 0 0 0 0 0 0 0 0 0 0
0 0 0 0 0 0 0 0 0 0 0 0 0 0 0 0 0 0 0 0 0 0
0 0 0 0 0 0 0 0 0 0 0 0 0 0 0 0 0 0 0 0 0 0
0 0 0 0 0 0 0 0 0 0 0 0 0 0 0 0 0 0 0 0 0 0
0 0 0 0 0 0 0 0 0 0 0 0 0 0 0 0 0 0 0 0 0 0
0 0 0 0 0 0 0 0 0 0 0 0 0 0 0 0 0 0 0 0 0 0
0 0 0 0 0 0 0 0 0 0 0 0 0 0 0 0 0 0 0 0 0 0
0 0 0 0 0 0 0 0 0 0 0 0 0 0 0 0 0 0 0 0 0 0
Wind_Speed_500mb
69 83 94 94 90 87 85 85 83 83 81 79 77 77 81 86 87 87 88 88 89 86
68 71 79 84 87 82 83 81 78 80 83 82 80 76 74 79 84 86 86 87 87 89
60 68 72 74 78 80 81 78 77 77 79 84 82 78 75 77 76 82 86 86 85 87
53 59 65 71 74 73 73 75 74 75 77 79 80 80 81 80 79 82 84 86 87 86
44 49 57 65 70 69 68 66 69 74 76 79 77 75 76 77 75 83 84 84 84 82
44 44 47 53 57 59 61 62 60 62 68 72 74 76 77 76 76 74 78 80 78 77
47 44 40 41 45 46 44 50 55 59 62 65 68 69 69 70 70 72 76 76 70 69
52 47 43 39 39 39 41 45 49 51 55 57 59 60 61 62 62 65 68 68 64 61
58 55 52 49 45 44 44 45 47 49 52 53 56 58 57 57 57 58 62 58 58 58
62 59 57 57 54 51 50 48 47 48 49 49 50 55 57 59 62 63 61 60 57 54
66 60 56 59 60 57 53 51 48 49 49 50 49 46 44 45 48 52 53 55 55 55
64 63 60 60 60 60 56 53 50 47 46 46 47 46 44 44 46 48 49 51 50 50
62 57 57 57 56 56 55 51 47 43 42 38 37 34 30 29 32 36 36 37 38 38
58 53 49 52 53 50 48 46 41 38 35 31 30 28 29 29 30 30 32 35 33 32
Wind_Direction_500mb
253 249 249 253 255 257 258 260 262 261 262 261 259 257 255 253 254 254 254 254 254 256
255 255 254 255 252 253 255 257 259 258 262 264 261 259 256 254 253 255 254 255 256 255
255 253 257 258 254 252 252 253 250 252 255 261 263 261 257 255 252 247 250 253 254 255
260 254 253 254 258 257 254 250 250 250 249 251 257 261 260 257 254 248 248 251 253 254
283 263 256 257 257 259 259 258 252 249 250 252 250 254 253 252 255 250 247 249 252 254
307 285 267 258 260 260 259 257 255 253 252 252 254 256 258 258 253 252 255 253 252 255
315 308 284 268 260 260 259 257 256 253 254 255 258 260 261 261 258 258 257 255 255 259
308 302 300 288 274 266 260 257 257 256 256 257 258 259 260 259 260 259 261 260 261 260
306 297 291 289 287 282 276 269 262 258 257 258 259 260 261 263 262 262 260 263 262 261
300 294 288 284 283 283 282 278 273 268 263 260 256 255 256 257 257 259 259 258 257 254
296 289 283 280 278 279 279 277 274 272 269 267 264 258 256 257 257 258 257 258 258 255
300 293 283 278 276 275 275 275 273 272 269 265 263 261 255 250 251 252 254 254 257 257
307 298 290 282 277 275 275 274 272 271 270 266 262 257 251 245 245 248 249 249 249 246
306 296 289 283 277 272 271 271 270 268 266 260 254 250 245 240 241 245 247 245 244 243
Wind_Speed_850mb
69 83 94 94 90 87 85 85 83 83 81 79 77 77 81 86 87 87 88 88 89 86
68 71 79 84 87 82 83 81 78 80 83 82 80 76 74 79 84 86 86 87 87 89
60 68 72 74 78 80 81 78 77 77 79 84 82 78 75 77 76 82 86 86 85 87
53 59 65 71 74 73 73 75 74 75 77 79 80 80 81 80 79 82 84 86 87 86
44 49 57 65 70 69 68 66 69 74 76 79 77 75 76 77 75 83 84 84 84 82
44 44 47 53 57 59 61 62 60 62 68 72 74 76 77 76 76 74 78 80 78 77
47 44 40 41 45 46 44 50 55 59 62 65 68 69 69 70 70 72 76 76 70 69
52 47 43 39 39 39 41 45 49 51 55 57 59 60 61 62 62 65 68 68 64 61
58 55 52 49 45 44 44 45 47 49 52 53 56 58 57 57 57 58 62 58 58 58
62 59 57 57 54 51 50 48 47 48 49 49 50 55 57 59 62 63 61 60 57 54
66 60 56 59 60 57 53 51 48 49 49 50 49 46 44 45 48 52 53 55 55 55
64 63 60 60 60 60 56 53 50 47 46 46 47 46 44 44 46 48 49 51 50 50
62 57 57 57 56 56 55 51 47 43 42 38 37 34 30 29 32 36 36 37 38 38
58 53 49 52 53 50 48 46 41 38 35 31 30 28 29 29 30 30 32 35 33 32
Wind_Direction_850mb
253 249 249 253 255 257 258 260 262 261 262 261 259 257 255 253 254 254 254 254 254 256
255 255 254 255 252 253 255 257 259 258 262 264 261 259 256 254 253 255 254 255 256 255
255 253 257 258 254 252 252 253 250 252 255 261 263 261 257 255 252 247 250 253 254 255
260 254 253 254 258 257 254 250 250 250 249 251 257 261 260 257 254 248 248 251 253 254
283 263 256 257 257 259 259 258 252 249 250 252 250 254 253 252 255 250 247 249 252 254
307 285 267 258 260 260 259 257 255 253 252 252 254 256 258 258 253 252 255 253 252 255
315 308 284 268 260 260 259 257 256 253 254 255 258 260 261 261 258 258 257 255 255 259
308 302 300 288 274 266 260 257 257 256 256 257 258 259 260 259 260 259 261 260 261 260
306 297 291 289 287 282 276 269 262 258 257 258 259 260 261 263 262 262 260 263 262 261
300 294 288 284 283 283 282 278 273 268 263 260 256 255 256 257 257 259 259 258 257 254
296 289 283 280 278 279 279 277 274 272 269 267 264 258 256 257 257 258 257 258 258 255
300 293 283 278 276 275 275 275 273 272 269 265 263 261 255 250 251 252 254 254 257 257
307 298 290 282 277 275 275 274 272 271 270 266 262 257 251 245 245 248 249 249 249 246
306 296 289 283 277 272 271 271 270 268 266 260 254 250 245 240 241 245 247 245 244 243